Weather History for South Lake Tahoe, CA

Change the Weather History Date:

Monday, October 17, 2011

  Actual Average Record
Temperature  
Mean Temperature 50 °F 45 °F  
Max Temperature 66 °F 63 °F 75 °F (1977)
Min Temperature 33 °F 28 °F 17 °F (1998)
Degree Days  
Heating Degree Days 15 20  
Month to date heating degree days 263 299  
Since 1 July heating degree days 711 925  
Cooling Degree Days 0 0  
Month to date cooling degree days 0 0  
Year to date cooling degree days 19 31  
Moisture  
Dew Point 37 °F    
Average Humidity 65    
Maximum Humidity 89    
Minimum Humidity 40    
Precipitation  
Precipitation 0.00 in - 1.14 in (1984)
Month to date precipitation 1.32  
Year to date precipitation 14.94  
Snow  
Snow 0.00 in - - ()
Month to date snowfall 0.0  
Snow Depth 0.00 in    
Sea Level Pressure  
Sea Level Pressure 30.28 in    
Wind  
Wind Speed 2 mph (SSW)    
Max Wind Speed 9 mph    
Max Gust Speed 13 mph    
Visibility 10 miles    
Events      
T = Trace of Precipitation, MM = Missing Value Source: NWS Daily Summary

Daily Weather History Graph

Daily Weather History Graph

Search for Another Location

Airport:

Trip Planner

Search our weather history database for the weather conditions in past years. The results will help you decide how hot, cold, wet, or windy it might be!

Date:

Astronomy

Oct. 17, 2011 Rise Set
Actual Time 7:11 AM PDT 6:18 PM PDT
Civil Twilight 6:44 AM PDT 6:45 PM PDT
Nautical Twilight 6:13 AM PDT 7:16 PM PDT
Astronomical Twilight 5:42 AM PDT 7:47 PM PDT
Moon 10:06 PM PDT (10/17) 12:19 PM PDT (10/17)
Length of Visible Light 12h 01m
Length of Day
11h 07m
Waning Gibbous, 73% of the Moon is Illuminated
Oct 17
Waning Gibbous
Oct 19
Last Quarter
Oct 26
New
Nov 2
First Quarter
Nov 10
Full

Hourly Weather History & Observations

Time (PDT) Temp. Windchill Dew Point Humidity Pressure Visibility Wind Dir Wind Speed Gust Speed Precip Events Conditions
12:53 AM 42.1 °F - 36.0 °F 79% 30.22 in 10.0 mi Calm Calm - N/A   Clear
1:53 AM 39.0 °F - 34.0 °F 82% 30.23 in 9.0 mi Calm Calm - N/A   Clear
2:53 AM 37.4 °F - 33.8 °F 87% 30.34 in 9.0 mi Calm Calm - N/A   Clear
3:53 AM 37.0 °F - 32.0 °F 82% 30.23 in 9.0 mi Calm Calm - N/A   Clear
4:53 AM 36.0 °F - 32.0 °F 86% 30.25 in 10.0 mi Calm Calm - N/A   Clear
5:53 AM 35.1 °F 31.0 °F 30.9 °F 85% 30.28 in 9.0 mi South 4.6 mph - N/A   Clear
6:53 AM 34.0 °F 31.0 °F 30.0 °F 85% 30.30 in 10.0 mi South 3.5 mph - N/A   Clear
7:53 AM 34.0 °F - 30.0 °F 85% 30.32 in 10.0 mi Calm Calm - N/A   Clear
8:53 AM 41.0 °F - 36.0 °F 82% 30.33 in 10.0 mi Calm Calm - N/A   Clear
9:53 AM 53.1 °F - 39.0 °F 59% 30.30 in 10.0 mi Calm Calm - N/A   Clear
10:53 AM 57.9 °F - 39.0 °F 49% 30.28 in 10.0 mi Calm Calm - N/A   Clear
11:53 AM 60.1 °F - 41.0 °F 49% 30.28 in 10.0 mi Variable 3.5 mph - N/A   Clear
12:53 PM 64.0 °F - 39.9 °F 41% 30.25 in 10.0 mi Variable 5.8 mph - N/A   Clear
1:53 PM 64.9 °F - 39.9 °F 40% 30.25 in 10.0 mi Variable 3.5 mph - N/A   Clear
2:53 PM 64.9 °F - 41.0 °F 42% 30.23 in 10.0 mi Variable 4.6 mph - N/A   Clear
3:53 PM 64.9 °F - 39.9 °F 40% 30.23 in 10.0 mi North 3.5 mph - N/A   Clear
4:53 PM 62.6 °F - 42.8 °F 48% 30.32 in 10.0 mi NNE 3.5 mph - N/A   Clear
5:53 PM 55.9 °F - 43.0 °F 62% 30.25 in 10.0 mi Calm Calm - N/A   Clear
6:53 PM 51.1 °F - 43.0 °F 74% 30.28 in 10.0 mi Calm Calm - N/A   Clear
7:53 PM 48.2 °F - 41.0 °F 76% 30.34 in 10.0 mi Calm Calm - N/A   Clear
8:53 PM 45.0 °F - 39.9 °F 82% 30.30 in 10.0 mi Calm Calm - N/A   Clear
9:53 PM 43.0 °F 41.3 °F 37.9 °F 82% 30.28 in 10.0 mi SSW 3.5 mph - N/A   Clear
10:53 PM 41.0 °F 39.0 °F 37.4 °F 87% 30.36 in 10.0 mi South 3.5 mph - N/A   Clear
11:53 PM 39.9 °F - 36.0 °F 86% 30.27 in 10.0 mi Calm Calm - N/A   Clear